Terminal Aerodrome Forecast
Issued by NWS Twin Cities, MN

Home | Current Version | Previous Version | Graphics & Text | Print | Product List | Glossary On
Versions: 1 2 3 4 5 6 7 8 9 10 11 12 13 14 15 16 17 18 19 20 21
713
FTUS43 KMPX 231724
TAFEAU
TAF
KEAU 231724Z 2318/2418 18016G24KT P6SM SCT060 BKN100
     FM232100 19015G22KT P6SM BKN060 OVC100
     FM240000 17012KT P6SM VCSH SCT025 OVC070
      TEMPO 2400/2404 2SM TSRA OVC025CB
     FM240500 19009KT 6SM -SHRA BR SCT015 OVC030
     FM240800 20005KT 4SM BR OVC005
      TEMPO 2409/2411 3/4SM BR OVC002
     FM241400 26004KT 6SM HZ BKN012=

USA.gov is the U.S. government's official web portal to all federal, state and local government web resources and services.